sat.trackr.live / text

‹ back to catalog

STARLINK-3301

NORAD 50169 · 2021-125P

PAYLOAD ACTIVE UNKNOWN

§ Identity

Operator
Country
US
Launch date
2021-12-18
Launch site
AFWTR
Launch vehicle
Mass (kg)
RCS (m²)

Purposes: comms

External: N2YO · Heavens-Above · Gunter

§ Orbital elements

Epoch: 2026-05-25T01:19:50.551680Z

Period
95.44 min
Inclination
53.2149°
Eccentricity
0.0000806
Mean motion
15.08840406 rev/d
Perigee alt
539.2 km
Apogee alt
540.3 km
Semi-major
6,917.9 km
B*
1.5528e-5
RAAN
266.2982°
Arg perigee
75.8512°
Mean anomaly
284.2570°
Rev number
24,813

§ Raw data

STARLINK-33011 50169U 21125P   26145.05544620 -.00000041  00000+0  15528-4 0  99962 50169  53.2149 266.2982 0000806  75.8512 284.2570 15.08840406248136

JSON: /api/v1/satellites/50169 · /tle

For live sub-satellite position, see the globe view (requires WebGL).

§ Visibility from observer

Set your observer location to see the next 7 days of passes ≥ 10°. The values pass through the URL so the page stays shareable.

No JS? Fill the form by hand. The geolocation button needs JavaScript.